|
|
Comet 66P/du Toit
(Preview)
66P/du Toit is a periodic comet in the Solar System with a current orbital period of 14.78 years. It was discovered by Daniel du Toit at the Boyden Observatory, South Africa on 16 May 1944, who estimated its brightness at magnitude 10. Other observers estimated magnitude 11 and 12.5. Read more
|
Blobrana
|
1
|
2828
|
|
|
|
|
Comet P/2018 H2 (PANSTARRS)
(Preview)
Comet P/2018 H2 (PANSTARRS) is at Opposition (1.235 AU) on the 14th May 2018
|
Blobrana
|
0
|
1930
|
|
|
|
|
Asteroid 2018 GB2
(Preview)
The 69 - 150 metre wide asteroid 2018 GB2 will make a close pass (17.0 lunar distances, 0.04379 AU), travelling at 14.56 km/second, to the Earth on the 27th April 2018 @ 17:15 UT ±00:01. See more The Lunar Distance (LD), the distance between Earth and the Moon, equals 384,401 km, (or 0.00256 AU).
|
Blobrana
|
0
|
1822
|
|
|
|
|
Comet C/2018 E1 (ATLAS)
(Preview)
Comet C/2018 E1 (ATLAS) in the constellation Columba is at perihelion (2.705 AU) on the 17th April 2018
|
Blobrana
|
0
|
1890
|
|
|
|
|
Comet C/2018 F1 (Grauer)
(Preview)
Comet C/2018 F1 (Grauer) is at Opposition (2.944 AU) on the 26th March 2018.
|
Blobrana
|
1
|
1996
|
|
|
|
|
Comet P/2011 WG113 (PANSTARRS)
(Preview)
Comet P/2011 WG113 (PANSTARRS) makes its closest approach to the Earth (0.459 AU) on the 2nd March 2018.
|
Blobrana
|
1
|
4459
|
|
|
|
|
Asteroid 2018 GN
(Preview)
The 15 - 34 metre wide asteroid 2018 GN will make a close pass (1.12 lunar distances, 0.00288 AU), travelling at 21.12 km/second, to the Earth on the 9th April 2018 @ 14:56 UT ±00:01. See more The Lunar Distance (LD), the distance between Earth and the Moon, equals 384,401 km, (or 0.00256 AU).
|
Blobrana
|
0
|
1785
|
|
|
|
|
Klemola's Comet
(Preview)
68P/Klemola or Klemola's Comet is a periodic comet, which belongs to Jupiter's comet family, that was discovered in 1965 by American astronomer Arnold Richard Klemola[de] in Argentinian Yale-Columbia Southern Station. Its orbital period is 10.82 years Read more
|
Blobrana
|
1
|
2054
|
|
|
|
|
Comet P/2006 H1 (McNaught)
(Preview)
Orbital elements:
C/2006 H1 (McNaught)
T 2006 Feb. 24.566 TT MPC
q 2.15508 (2000.0) P Q
n 0.149642 Peri. 285.416 +0.217611 +0.975968
a 3.51371 Node 357.078 -0.786400 +0.168336
e 0.38667 Incl. 13.045 -0.578119 +0.138384
P 6.59
From 9 observations 2006 Apr. 29-May 1. MPEC 2006 - J06 COMET P/...
|
Blobrana
|
1
|
2011
|
|
|
|
|
Comet C/2018 B1 (Lemmon)
(Preview)
Comet C/2018 B1 (Lemmon) is at Perihelion (5.117 AU) on the 30th March 2018.
|
Blobrana
|
0
|
1823
|
|
|
|
|
Comet C/2018 C2 (Lemmon)
(Preview)
a-1181.4473740499375.315auq1.9565290953899950.00020523aui34.452968366378680.00096552degnode91.143131193116520.0060318degperi134.1369787797450.013425degM-.0024083717190659510.0002300...
|
Blobrana
|
0
|
1681
|
|
|
|
|
Comet C/2016 M1 (PANSTARRS)
(Preview)
Comet C/2016 M1 (PANSTARRS) in the constellation Aquila reaches magnitude +10.9 on the 26th March 2018. Distance to Earth: 2.84 AU See more
|
Blobrana
|
0
|
1802
|
|
|
|
|
Comet P/2017 W3 (Gibbs)
(Preview)
Comet P/2017 W3 (Gibbs) is at Perihelion (3.833 AU) on the 27th February 2018.
|
Blobrana
|
1
|
1982
|
|
|
|
|
Comet C/2015 V4 (PANSTARRS)
(Preview)
Comet C/2015 V4 (PANSTARRS) makes its closest approach to the Earth (5.445 AU) on the 12th March 2018.
|
Blobrana
|
1
|
1888
|
|
|
|
|
Comet 314P/Montani
(Preview)
Comet 314P/Montani makes its closest approach to the Earth (4.053 AU) on the 18th March 2018.
|
Blobrana
|
0
|
1775
|
|
|